Time,TemperatureF,DewpointF,PressureIn,WindDirection,WindDirectionDegrees,WindSpeedMPH,WindSpeedGustMPH,Humidity,HourlyPrecipIn,Conditions,Clouds,dailyrainin,SoftwareType,DateUTC
2013-01-19 09:58:00,18.0,-99.9,-100.00,North,-999,-999.0,-999.0,-999,-99.99,,,0.00,,2013-01-19 17:58:00,
2013-01-19 10:13:00,18.0,-99.9,-100.00,North,-999,-999.0,-999.0,-999,-99.99,,,0.00,,2013-01-19 18:13:00,
2013-01-19 10:30:00,18.0,-99.9,-100.00,North,-999,-999.0,-999.0,-999,-99.99,,,0.00,,2013-01-19 18:30:00,
2013-01-19 11:05:00,40.0,13.0,-100.00,SE,138,1.0,2.0,32,-99.99,,,0.00,,2013-01-19 19:05:00,
2013-01-19 11:34:00,40.0,13.0,-100.00,SE,138,1.0,2.0,32,-99.99,,,0.00,,2013-01-19 19:34:00,
2013-01-19 11:56:00,48.0,9.0,-100.00,WSW,242,1.0,3.0,20,0.00,,,0.00,,2013-01-19 19:56:00,
2013-01-19 12:08:00,48.0,9.0,-100.00,WSW,242,1.0,3.0,20,0.00,,,0.00,,2013-01-19 20:08:00,
2013-01-19 12:17:00,48.0,9.0,-100.00,WSW,242,1.0,3.0,20,0.00,,,0.00,,2013-01-19 20:17:00,
2013-01-19 12:24:00,48.0,9.0,-100.00,WSW,242,1.0,3.0,20,0.00,,,0.00,,2013-01-19 20:24:00,
2013-01-19 13:05:00,49.0,5.0,-100.00,NNW,332,2.0,5.0,16,0.00,,,0.00,,2013-01-19 21:05:00,
2013-01-19 13:59:00,46.0,5.0,-100.00,NE,50,2.0,5.0,18,0.00,,,0.00,,2013-01-19 21:59:00,
2013-01-19 14:09:00,46.0,5.0,-100.00,NE,50,2.0,5.0,18,0.00,,,0.00,,2013-01-19 22:09:00,
2013-01-19 14:15:00,46.0,5.0,-100.00,NE,50,2.0,5.0,18,0.00,,,0.00,,2013-01-19 22:15:00,
2013-01-19 14:24:00,46.0,5.0,-100.00,NE,50,2.0,5.0,18,0.00,,,0.00,,2013-01-19 22:24:00,
2013-01-19 14:33:00,46.0,5.0,-100.00,NE,50,2.0,5.0,18,0.00,,,0.00,,2013-01-19 22:33:00,
2013-01-19 15:14:00,47.0,4.0,-100.00,North,349,2.0,5.0,17,0.00,,,0.00,,2013-01-19 23:14:00,
2013-01-19 15:24:00,47.0,4.0,-100.00,North,349,2.0,5.0,17,0.00,,,0.00,,2013-01-19 23:24:00,
2013-01-19 15:33:00,47.0,4.0,-100.00,North,349,2.0,5.0,17,0.00,,,0.00,,2013-01-19 23:33:00,
2013-01-19 16:06:00,48.0,11.0,-100.00,NNW,337,2.0,6.0,22,0.00,,,0.00,,2013-01-20 00:06:00,
2013-01-19 16:14:00,48.0,11.0,-100.00,NNW,337,2.0,6.0,22,0.00,,,0.00,,2013-01-20 00:14:00,
2013-01-19 16:24:00,48.0,11.0,-100.00,NNW,337,2.0,6.0,22,0.00,,,0.00,,2013-01-20 00:24:00,
2013-01-19 16:33:00,48.0,11.0,-100.00,NNW,337,2.0,6.0,22,0.00,,,0.00,,2013-01-20 00:33:00,
2013-01-19 17:03:00,33.0,15.0,-100.00,SW,214,1.0,5.0,47,0.00,,,0.00,,2013-01-20 01:03:00,
2013-01-19 17:33:00,33.0,15.0,-100.00,SW,214,1.0,5.0,47,0.00,,,0.00,,2013-01-20 01:33:00,
2013-01-19 18:03:00,26.0,16.0,-100.00,SW,215,1.0,2.0,65,0.00,,,0.00,,2013-01-20 02:03:00,
2013-01-19 18:34:00,26.0,16.0,-100.00,SW,215,1.0,2.0,65,0.00,,,0.00,,2013-01-20 02:34:00,